FW0743 Weather Reports


time (UTC)temp
F
wind
direction
speed
knots
gust
knots
rain 1hr
in
rain 24hr
in
rain mn
in
humidity
%
barometer
mb
20260906073019 55 355 0.0 1.7 0.00 0.00 0.00 97 1015.6
20260906071513 56 355 0.9 1.7 0.00 0.00 0.00 97 1015.7
20260906070015 55 355 0.0 1.7 0.00 0.00 0.00 97 1015.7
20260906064516 55 355 0.0 1.7 0.00 0.00 0.00 96 1015.6
20260906063018 55 355 0.0 0.9 0.00 0.00 0.00 96 1015.6
20260906061518 56 355 0.0 0.9 0.00 0.00 0.00 96 1015.7
20260906060025 56 355 0.0 0.9 0.00 0.00 0.00 95 1015.7
20260906054532 57 355 0.0 0.9 0.00 0.00 0.00 95 1015.8
20260906053017 57 355 0.0 0.9 0.00 0.00 0.00 95 1015.8
20260906051518 58 355 0.0 0.9 0.00 0.00 0.00 94 1015.7
20260906050019 58 355 0.0 0.0 0.00 0.00 0.00 94 1015.7
20260906044516 59 355 0.0 0.9 0.00 0.00 0.00 93 1015.7
20260906043021 59 355 0.0 0.0 0.00 0.00 0.00 93 1015.8
20260906041521 60 355 0.0 0.0 0.00 0.00 0.00 93 1015.7
20260906040037 60 355 0.0 1.7 0.00 0.00 0.00 93 1015.8
20260906034523 60 355 0.0 0.0 0.00 0.00 0.00 93 1015.6
20260906033037 60 355 0.0 0.0 0.00 0.00 0.00 92 1015.6
20260906031522 60 355 0.0 0.9 0.00 0.00 0.00 92 1015.5
20260906030021 61 355 0.0 0.0 0.00 0.00 0.00 92 1015.4
20260906024526 61 355 0.0 0.9 0.00 0.00 0.00 91 1015.3
20260906023024 61 355 0.0 1.7 0.00 0.00 0.00 91 1015.3
20260906021514 61 360 0.9 2.6 0.00 0.00 0.00 91 1015.3
20260906020005 61 360 0.0 1.7 0.00 0.00 0.00 91 1015.1
20260906014511 62 5 0.0 1.7 0.00 0.00 0.00 90 1015.1
20260906013013 62 5 0.0 2.6 0.00 0.00 0.00 89 1015.1
20260906011517 63 355 0.0 2.6 0.00 0.00 0.00 89 1015.1
20260906010004 63 33 0.0 3.5 0.00 0.00 0.00 89 1015.1
20260906004504 63 331 0.0 2.6 0.00 0.00 0.00 89 1015.0
20260906003012 64 17 0.0 2.6 0.00 0.00 0.00 88 1014.9
20260906001517 64 341 0.9 4.3 0.00 0.00 0.00 88 1015.0
20260906000017 64 352 0.9 3.5 0.00 0.00 0.00 87 1014.7
20260905234507 64 26 0.9 3.5 0.00 0.00 0.00 86 1014.9
20260905233009 65 343 0.9 6.1 0.00 0.00 0.00 85 1015.0
20260905231519 66 348 1.7 3.5 0.00 0.00 0.00 84 1014.7
20260905230017 67 303 2.6 7.8 0.00 0.00 0.00 82 1014.7
20260905224540 68 5 1.7 6.1 0.00 0.00 0.00 80 1014.6
20260905223008 67 340 3.5 8.7 0.00 0.00 0.00 80 1014.6
20260905221513 69 323 1.7 7.0 0.00 0.00 0.00 78 1014.7
20260905220019 68 321 3.5 9.6 0.00 0.00 0.00 78 1014.6
20260905214520 69 329 3.5 7.8 0.00 0.00 0.00 77 1014.3
20260905213019 69 323 2.6 10.4 0.00 0.00 0.00 76 1014.1
20260905211533 69 11 6.1 10.4 0.00 0.00 0.00 76 1014.0
20260905210026 70 302 3.5 10.4 0.00 0.00 0.00 76 1014.0
20260905204520 70 350 4.3 12.2 0.00 0.00 0.00 75 1014.0
20260905203026 70 350 4.3 10.4 0.00 0.00 0.00 74 1014.1
20260905201525 71 343 4.3 10.4 0.00 0.00 0.00 73 1014.1
20260905200022 70 312 6.1 12.2 0.00 0.00 0.00 73 1014.1
20260905194520 71 345 4.3 8.7 0.00 0.00 0.00 72 1014.0
20260905193027 71 342 3.5 10.4 0.00 0.00 0.00 72 1013.9
20260905191526 71 5 3.5 10.4 0.00 0.00 0.00 71 1014.0
20260905190027 70 319 5.2 10.4 0.00 0.00 0.00 72 1014.0
20260905184527 70 310 7.0 11.3 0.00 0.00 0.00 74 1013.9
20260905183026 70 22 3.5 11.3 0.00 0.00 0.00 73 1014.0
20260905181526 70 9 6.1 13.0 0.00 0.00 0.00 74 1014.0
20260905180032 69 319 5.2 11.3 0.00 0.00 0.00 75 1013.8
20260905174513 69 307 5.2 9.6 0.00 0.00 0.00 77 1013.8
20260905173021 69 334 6.1 9.6 0.00 0.00 0.00 76 1014.0
20260905171529 70 39 6.1 11.3 0.00 0.00 0.00 74 1014.0
20260905170009 70 347 5.2 9.6 0.00 0.00 0.00 73 1014.0
20260905164516 71 281 6.1 13.0 0.00 0.00 0.00 71 1014.0
20260905163016 70 344 5.2 8.7 0.00 0.00 0.00 71 1014.0
20260905161505 70 63 4.3 9.6 0.00 0.00 0.00 72 1014.0
20260905160003 69 76 2.6 11.3 0.00 0.00 0.00 75 1014.1
20260905154511 69 302 4.3 8.7 0.00 0.00 0.00 73 1014.2
20260905153018 69 331 3.5 8.7 0.00 0.00 0.00 75 1014.3
20260905151522 69 30 0.9 9.6 0.00 0.00 0.00 75 1014.3
20260905150004 68 345 3.5 8.7 0.00 0.00 0.00 76 1014.3
20260905144516 67 350 3.5 8.7 0.00 0.00 0.00 78 1014.3
20260905143009 67 324 2.6 7.8 0.00 0.00 0.00 78 1014.3
20260905141517 67 44 2.6 7.0 0.00 0.00 0.00 82 1014.1
20260905140024 65 351 2.6 8.7 0.00 0.00 0.00 82 1014.1
20260905134505 65 316 3.5 8.7 0.00 0.00 0.00 83 1014.2
20260905133009 65 117 2.6 7.0 0.00 0.00 0.00 85 1014.1
20260905131523 64 338 2.6 6.1 0.00 0.00 0.00 87 1014.2
20260905130020 62 31 1.7 7.0 0.00 0.00 0.00 90 1014.3
20260905124526 61 24 0.0 6.1 0.00 0.00 0.00 94 1014.4
20260905123007 60 44 0.9 5.2 0.00 0.00 0.00 95 1014.3
20260905121510 59 39 0.9 3.5 0.00 0.00 0.00 98 1014.2
20260905120017 57 352 0.0 0.9 0.00 0.00 0.00 98 1014.1
20260905114523 55 352 0.0 0.0 0.00 0.00 0.00 98 1014.0
20260905113006 54 352 0.0 0.0 0.00 0.00 0.00 98 1014.0
20260905111509 53 352 0.0 0.0 0.00 0.00 0.00 97 1013.7
20260905110014 53 352 0.0 0.0 0.00 0.00 0.00 97 1013.5
20260905104520 53 352 0.0 0.0 0.00 0.00 0.00 97 1013.3
20260905103030 53 352 0.0 0.9 0.00 0.00 0.00 97 1013.1
20260905101508 53 352 0.0 0.0 0.00 0.00 0.00 97 1013.2
20260905100019 54 352 0.0 0.0 0.00 0.00 0.00 97 1013.2
20260905094520 54 352 0.0 0.0 0.00 0.00 0.00 97 1013.2
20260905093024 54 352 0.0 0.0 0.00 0.00 0.00 97 1013.3
20260905091527 54 352 0.0 0.9 0.00 0.00 0.00 97 1013.2
20260905090010 55 352 0.0 0.0 0.00 0.00 0.00 96 1013.1
20260905084513 55 352 0.0 0.0 0.00 0.00 0.00 96 1013.2
20260905083018 55 352 0.0 0.0 0.00 0.00 0.00 96 1013.2
20260905081524 55 352 0.0 0.9 0.00 0.00 0.00 96 1013.3
20260905080030 55 352 0.0 0.0 0.00 0.00 0.00 95 1013.4
20260905074521 56 352 0.0 0.9 0.00 0.00 0.00 95 1013.3